Location: Tamazert
(32.6352°N, 5.2072°W)
Time: 03:56:55
(UTC+00:00)

Vanguard 2 - Pass Details

Date: 08 October 2022
Orbit: 553 x 2933 km, 32.9° (Epoch: 04 December)

Event Time Altitude Azimuth Distance (km) Brightness Sun altitude
Rises 10:00:35 0° 219° (SW) 3,367 10.9 40.9°
Reaches altitude 10° 10:02:52 10° 210° (SSW) 2,651 10.6 41.2°
Maximum altitude 10:08:46 37° 144° (SE) 1,867 12.4 42.1°
Drops below altitude 10° 10:18:05 10° 82° (E) 4,209 11.7 43.3°
Sets 10:22:40 0° 75° (ENE) 5,620 12.2 43.9°
